| time (UTC) | temp F | wind direction | speed knots | gust knots | rain 1hr in | rain 24hr in | rain mn in | humidity % | barometer mb |
| 20260503072339 | 30 | 310 | 2.6 | 8.7 | 0.00 | 0.04 | 0.00 | 73 | 1005.8 |
| 20260503071832 | 30 | 297 | 3.5 | 8.7 | 0.00 | 0.04 | 0.00 | 74 | 1005.8 |
| 20260503071346 | 30 | 12 | 3.5 | 8.7 | 0.00 | 0.04 | 0.00 | 73 | 1005.7 |
| 20260503070837 | 30 | 302 | 2.6 | 8.7 | 0.00 | 0.04 | 0.00 | 73 | 1005.7 |
| 20260503070331 | 30 | 295 | 1.7 | 7.8 | 0.00 | 0.04 | 0.00 | 76 | 1005.7 |
| 20260503060337 | 31 | 308 | 2.6 | 8.7 | 0.00 | 0.08 | 0.00 | 77 | 1005.5 |
| 20260503054832 | 32 | 281 | 3.5 | 7.8 | 0.00 | 0.08 | 0.00 | 79 | 1005.4 |
| 20260503054325 | 31 | 320 | 3.5 | 7.8 | 0.00 | 0.08 | 0.00 | 81 | 1005.4 |
| 20260503053857 | 30 | 332 | 3.5 | 7.8 | 0.00 | 0.08 | 0.00 | 81 | 1005.5 |
| 20260503053330 | 30 | 324 | 1.7 | 6.1 | 0.00 | 0.08 | 0.00 | 82 | 1005.6 |
| 20260503052839 | 29 | 298 | 2.6 | 9.6 | 0.00 | 0.08 | 0.00 | 82 | 1005.6 |
| 20260503052333 | 29 | 303 | 4.3 | 11.3 | 0.00 | 0.08 | 0.00 | 81 | 1005.5 |
| 20260503051822 | 29 | 319 | 4.3 | 11.3 | 0.00 | 0.08 | 0.00 | 81 | 1005.5 |
| 20260503051337 | 29 | 291 | 3.5 | 7.0 | 0.00 | 0.08 | 0.00 | 81 | 1005.5 |
| 20260503050848 | 28 | 272 | 2.6 | 5.2 | 0.00 | 0.08 | 0.00 | 80 | 1005.5 |
| 20260503050321 | 28 | 297 | 0.9 | 5.2 | 0.00 | 0.08 | 0.00 | 81 | 1005.4 |
| 20260503045833 | 28 | 296 | 2.6 | 5.2 | 0.00 | 0.08 | 0.00 | 82 | 1005.4 |
| 20260503045324 | 28 | 326 | 1.7 | 3.5 | 0.00 | 0.08 | 0.00 | 82 | 1005.4 |
| 20260503044836 | 28 | 326 | 0.9 | 2.6 | 0.00 | 0.08 | 0.00 | 82 | 1005.4 |
| 20260503044327 | 28 | 330 | 0.9 | 4.3 | 0.00 | 0.08 | 0.00 | 84 | 1005.3 |
| 20260503043838 | 28 | 330 | 0.9 | 4.3 | 0.00 | 0.08 | 0.00 | 84 | 1005.3 |
| 20260503043330 | 28 | 323 | 0.0 | 3.5 | 0.00 | 0.08 | 0.00 | 84 | 1005.3 |
| 20260503042826 | 27 | 322 | 0.9 | 3.5 | 0.00 | 0.12 | 0.00 | 84 | 1005.2 |
| 20260503042338 | 27 | 325 | 0.9 | 3.5 | 0.00 | 0.12 | 0.00 | 85 | 1005.4 |
| 20260503041828 | 27 | 325 | 1.7 | 3.5 | 0.00 | 0.12 | 0.00 | 84 | 1005.4 |
| 20260503041321 | 27 | 316 | 0.0 | 1.7 | 0.00 | 0.12 | 0.00 | 84 | 1005.4 |
| 20260503040835 | 27 | 316 | 0.0 | 2.6 | 0.00 | 0.12 | 0.00 | 84 | 1005.4 |
| 20260503040327 | 27 | 316 | 0.0 | 2.6 | 0.00 | 0.12 | 0.00 | 85 | 1005.4 |
| 20260503035836 | 27 | 316 | 0.0 | 3.5 | 0.00 | 0.12 | 0.00 | 85 | 1005.4 |
| 20260503035326 | 27 | 316 | 0.0 | 5.2 | 0.00 | 0.12 | 0.00 | 84 | 1005.4 |
| 20260503034821 | 27 | 339 | 0.0 | 5.2 | 0.00 | 0.12 | 0.00 | 84 | 1005.3 |
| 20260503034332 | 27 | 291 | 0.9 | 3.5 | 0.00 | 0.12 | 0.00 | 84 | 1005.4 |
| 20260503033837 | 27 | 301 | 1.7 | 3.5 | 0.00 | 0.12 | 0.00 | 83 | 1005.3 |
| 20260503033331 | 27 | 300 | 0.9 | 4.3 | 0.00 | 0.12 | 0.00 | 82 | 1005.2 |
| 20260503032823 | 27 | 297 | 1.7 | 3.5 | 0.00 | 0.16 | 0.00 | 82 | 1005.0 |
| 20260503032337 | 27 | 335 | 0.9 | 3.5 | 0.00 | 0.16 | 0.00 | 82 | 1005.0 |
| 20260503031829 | 27 | 336 | 1.7 | 6.1 | 0.00 | 0.16 | 0.00 | 82 | 1005.1 |
| 20260503031339 | 27 | 324 | 3.5 | 6.1 | 0.00 | 0.16 | 0.00 | 82 | 1005.1 |
| 20260503030835 | 27 | 351 | 2.6 | 8.7 | 0.00 | 0.16 | 0.00 | 82 | 1005.2 |
| 20260503030330 | 27 | 6 | 3.5 | 8.7 | 0.00 | 0.16 | 0.00 | 82 | 1005.2 |
| 20260503025837 | 27 | 39 | 0.0 | 5.2 | 0.00 | 0.16 | 0.00 | 83 | 1005.2 |
| 20260503025331 | 27 | 39 | 0.9 | 9.6 | 0.00 | 0.16 | 0.00 | 83 | 1005.2 |
| 20260503024822 | 27 | 349 | 5.2 | 9.6 | 0.00 | 0.16 | 0.00 | 84 | 1005.3 |
| 20260503024336 | 27 | 38 | 1.7 | 7.8 | 0.00 | 0.16 | 0.00 | 84 | 1005.4 |
| 20260503023827 | 27 | 355 | 1.7 | 5.2 | 0.00 | 0.16 | 0.00 | 84 | 1005.5 |
| 20260503023321 | 27 | 323 | 1.7 | 6.1 | 0.00 | 0.16 | 0.00 | 84 | 1005.4 |
| 20260503022837 | 27 | 328 | 3.5 | 8.7 | 0.00 | 0.16 | 0.00 | 83 | 1005.4 |
| 20260503022329 | 27 | 312 | 4.3 | 10.4 | 0.00 | 0.16 | 0.00 | 83 | 1005.4 |
| 20260503021821 | 28 | 305 | 5.2 | 10.4 | 0.00 | 0.16 | 0.00 | 82 | 1005.2 |
| 20260503021332 | 28 | 329 | 6.1 | 10.4 | 0.00 | 0.16 | 0.00 | 83 | 1005.2 |
| 20260503020831 | 28 | 323 | 6.1 | 10.4 | 0.00 | 0.16 | 0.00 | 84 | 1005.1 |
| 20260503020324 | 28 | 291 | 4.3 | 9.6 | 0.00 | 0.16 | 0.00 | 82 | 1005.1 |
| 20260503015836 | 28 | 320 | 4.3 | 9.6 | 0.00 | 0.16 | 0.00 | 81 | 1005.2 |
| 20260503015328 | 29 | 330 | 3.5 | 9.6 | 0.00 | 0.16 | 0.00 | 80 | 1005.2 |
| 20260503014832 | 29 | 332 | 6.1 | 8.7 | 0.00 | 0.16 | 0.00 | 79 | 1005.2 |
| 20260503014328 | 29 | 317 | 3.5 | 10.4 | 0.00 | 0.16 | 0.00 | 79 | 1005.1 |
| 20260503013839 | 29 | 255 | 4.3 | 10.4 | 0.00 | 0.16 | 0.00 | 79 | 1005.2 |
| 20260503013331 | 29 | 321 | 1.7 | 4.3 | 0.00 | 0.16 | 0.00 | 79 | 1005.2 |
| 20260503012822 | 29 | 348 | 1.7 | 4.3 | 0.00 | 0.16 | 0.00 | 78 | 1005.2 |
| 20260503012333 | 29 | 351 | 2.6 | 13.0 | 0.00 | 0.16 | 0.00 | 78 | 1005.2 |
| 20260503011827 | 28 | 81 | 6.1 | 8.7 | 0.00 | 0.16 | 0.00 | 78 | 1005.1 |
| 20260503011338 | 28 | 37 | 4.3 | 10.4 | 0.00 | 0.16 | 0.00 | 79 | 1005.1 |
| 20260503010851 | 28 | 20 | 2.6 | 7.8 | 0.00 | 0.16 | 0.00 | 79 | 1005.1 |
| 20260503010324 | 29 | 12 | 3.5 | 6.1 | 0.00 | 0.16 | 0.00 | 81 | 1005.3 |
| 20260503005837 | 29 | 42 | 0.0 | 7.8 | 0.00 | 0.16 | 0.00 | 82 | 1005.3 |
| 20260503005329 | 29 | 35 | 2.6 | 7.8 | 0.00 | 0.16 | 0.00 | 82 | 1005.4 |
| 20260503004822 | 29 | 4 | 0.9 | 8.7 | 0.00 | 0.16 | 0.00 | 83 | 1005.3 |
| 20260503004331 | 29 | 309 | 1.7 | 12.2 | 0.00 | 0.16 | 0.00 | 83 | 1005.2 |
| 20260503003824 | 29 | 332 | 3.5 | 13.0 | 0.00 | 0.16 | 0.00 | 84 | 1005.0 |
| 20260503003357 | 29 | 326 | 7.0 | 15.6 | 0.00 | 0.16 | 0.00 | 84 | 1005.0 |
| 20260503002828 | 29 | 337 | 7.8 | 15.6 | 0.00 | 0.16 | 0.00 | 85 | 1004.9 |
| 20260503002342 | 29 | 356 | 4.3 | 14.8 | 0.00 | 0.16 | 0.00 | 86 | 1004.9 |
| 20260503001833 | 29 | 291 | 7.0 | 13.0 | 0.00 | 0.16 | 0.00 | 87 | 1004.9 |
| 20260503001328 | 29 | 321 | 7.8 | 13.0 | 0.00 | 0.16 | 0.00 | 88 | 1004.9 |
| 20260503000820 | 29 | 334 | 5.2 | 13.0 | 0.00 | 0.16 | 0.00 | 88 | 1004.9 |
| 20260503000335 | 29 | 324 | 4.3 | 13.0 | 0.00 | 0.16 | 0.00 | 88 | 1004.9 |
| 20260502235825 | 29 | 337 | 3.5 | 9.6 | 0.00 | 0.16 | 0.00 | 89 | 1004.9 |
| 20260502235338 | 30 | 328 | 1.7 | 7.8 | 0.00 | 0.16 | 0.00 | 90 | 1004.8 |
| 20260502234851 | 30 | 350 | 3.5 | 7.8 | 0.00 | 0.16 | 0.00 | 90 | 1004.7 |
| 20260502234341 | 30 | 335 | 3.5 | 7.8 | 0.00 | 0.16 | 0.00 | 90 | 1004.7 |
| 20260502233834 | 30 | 353 | 3.5 | 7.8 | 0.00 | 0.16 | 0.00 | 90 | 1004.6 |
| 20260502233326 | 30 | 319 | 1.7 | 5.2 | 0.00 | 0.16 | 0.00 | 89 | 1004.6 |
| 20260502232819 | 30 | 355 | 1.7 | 4.3 | 0.00 | 0.16 | 0.00 | 88 | 1004.5 |
| 20260502232332 | 30 | 316 | 0.0 | 2.6 | 0.00 | 0.16 | 0.00 | 88 | 1004.5 |
| 20260502231825 | 30 | 316 | 0.9 | 4.3 | 0.00 | 0.16 | 0.00 | 88 | 1004.4 |
| 20260502231337 | 30 | 316 | 0.9 | 7.8 | 0.00 | 0.16 | 0.00 | 88 | 1004.4 |
| 20260502230827 | 30 | 319 | 2.6 | 7.8 | 0.00 | 0.16 | 0.00 | 88 | 1004.3 |
| 20260502230322 | 30 | 350 | 1.7 | 5.2 | 0.00 | 0.16 | 0.00 | 88 | 1004.3 |
| 20260502225832 | 30 | 335 | 1.7 | 6.1 | 0.00 | 0.16 | 0.00 | 88 | 1004.2 |
| 20260502225325 | 30 | 347 | 3.5 | 10.4 | 0.00 | 0.16 | 0.00 | 88 | 1004.2 |
| 20260502224839 | 30 | 339 | 3.5 | 10.4 | 0.00 | 0.16 | 0.00 | 89 | 1004.2 |
| 20260502224331 | 30 | 350 | 4.3 | 8.7 | 0.00 | 0.16 | 0.00 | 90 | 1004.2 |
| 20260502223823 | 30 | 45 | 2.6 | 7.8 | 0.00 | 0.16 | 0.00 | 90 | 1004.2 |
| 20260502223336 | 31 | 39 | 1.7 | 5.2 | 0.00 | 0.16 | 0.00 | 90 | 1004.2 |
| 20260502222828 | 31 | 21 | 1.7 | 7.8 | 0.00 | 0.16 | 0.03 | 90 | 1004.2 |
| 20260502222321 | 31 | 350 | 1.7 | 8.7 | 0.00 | 0.16 | 0.03 | 90 | 1004.2 |
| 20260502221833 | 31 | 12 | 1.7 | 8.7 | 0.00 | 0.16 | 0.03 | 90 | 1004.1 |
| 20260502221325 | 31 | 359 | 0.0 | 3.5 | 0.00 | 0.16 | 0.03 | 90 | 1004.1 |
| 20260502220838 | 31 | 359 | 0.0 | 3.5 | 0.00 | 0.16 | 0.03 | 90 | 1004.1 |
| 20260502220333 | 31 | 351 | 0.9 | 3.5 | 0.00 | 0.16 | 0.03 | 89 | 1004.1 |
| 20260502215824 | 31 | 350 | 1.7 | 5.2 | 0.00 | 0.16 | 0.03 | 89 | 1004.1 |
| 20260502215337 | 31 | 352 | 2.6 | 5.2 | 0.00 | 0.16 | 0.03 | 89 | 1004.1 |
| 20260502214828 | 31 | 333 | 1.7 | 6.1 | 0.00 | 0.16 | 0.03 | 89 | 1004.1 |
| 20260502214320 | 31 | 341 | 3.5 | 9.6 | 0.00 | 0.16 | 0.03 | 89 | 1004.1 |
| 20260502213852 | 31 | 324 | 5.2 | 9.6 | 0.00 | 0.16 | 0.03 | 89 | 1004.1 |
| 20260502213324 | 31 | 332 | 2.6 | 10.4 | 0.00 | 0.16 | 0.03 | 89 | 1004.0 |
| 20260502212836 | 31 | 330 | 5.2 | 10.4 | 0.00 | 0.16 | 0.03 | 89 | 1004.0 |
| 20260502212332 | 31 | 318 | 2.6 | 7.8 | 0.00 | 0.16 | 0.03 | 88 | 1004.0 |
| 20260502211843 | 31 | 322 | 1.7 | 4.3 | 0.00 | 0.16 | 0.03 | 88 | 1004.0 |
| 20260502211334 | 31 | 317 | 1.7 | 7.8 | 0.00 | 0.16 | 0.03 | 87 | 1004.1 |
| 20260502210821 | 30 | 12 | 1.7 | 7.8 | 0.00 | 0.16 | 0.03 | 87 | 1004.1 |
| 20260502210354 | 30 | 355 | 0.0 | 0.9 | 0.00 | 0.16 | 0.03 | 87 | 1004.2 |
| 20260502205824 | 30 | 355 | 0.0 | 2.6 | 0.00 | 0.16 | 0.03 | 87 | 1004.2 |
| 20260502205337 | 30 | 355 | 0.0 | 2.6 | 0.00 | 0.16 | 0.03 | 87 | 1004.2 |
| 20260502204829 | 30 | 353 | 0.0 | 1.7 | 0.00 | 0.16 | 0.03 | 86 | 1004.2 |
| 20260502204321 | 30 | 353 | 0.0 | 0.9 | 0.00 | 0.16 | 0.03 | 86 | 1004.2 |
| 20260502203833 | 30 | 353 | 0.0 | 2.6 | 0.00 | 0.16 | 0.03 | 86 | 1004.2 |
| 20260502203330 | 30 | 353 | 0.9 | 2.6 | 0.00 | 0.16 | 0.03 | 86 | 1004.1 |
| 20260502202822 | 30 | 333 | 0.0 | 3.5 | 0.00 | 0.16 | 0.03 | 86 | 1004.1 |
| 20260502202355 | 30 | 333 | 1.7 | 3.5 | 0.00 | 0.16 | 0.03 | 86 | 1004.2 |
| 20260502201826 | 30 | 320 | 1.7 | 6.1 | 0.00 | 0.16 | 0.03 | 86 | 1004.2 |
| 20260502201336 | 30 | 330 | 3.5 | 7.8 | 0.00 | 0.16 | 0.03 | 86 | 1004.3 |
| 20260502200829 | 30 | 343 | 1.7 | 7.0 | 0.00 | 0.16 | 0.03 | 86 | 1004.3 |
| 20260502200324 | 31 | 326 | 2.6 | 6.1 | 0.00 | 0.16 | 0.03 | 87 | 1004.3 |
| 20260502195834 | 31 | 332 | 3.5 | 6.1 | 0.00 | 0.16 | 0.03 | 88 | 1004.2 |
| 20260502195330 | 31 | 270 | 2.6 | 7.8 | 0.00 | 0.16 | 0.03 | 88 | 1004.2 |
| 20260502194823 | 31 | 330 | 2.6 | 7.8 | 0.00 | 0.16 | 0.03 | 88 | 1004.2 |
| 20260502194333 | 31 | 314 | 3.5 | 5.2 | 0.00 | 0.16 | 0.03 | 88 | 1004.3 |
| 20260502193847 | 31 | 318 | 0.9 | 7.8 | 0.00 | 0.16 | 0.03 | 88 | 1004.4 |
| 20260502193337 | 31 | 320 | 3.5 | 10.4 | 0.00 | 0.16 | 0.03 | 88 | 1004.4 |
| 20260502192829 | 31 | 340 | 5.2 | 10.4 | 0.00 | 0.16 | 0.03 | 89 | 1004.4 |
| 20260502192321 | 32 | 322 | 2.6 | 10.4 | 0.00 | 0.16 | 0.03 | 89 | 1004.4 |
| 20260502191833 | 32 | 323 | 2.6 | 10.4 | 0.00 | 0.16 | 0.03 | 89 | 1004.5 |
| 20260502191326 | 32 | 332 | 5.2 | 10.4 | 0.00 | 0.16 | 0.03 | 89 | 1004.6 |
| 20260502190843 | 32 | 324 | 4.3 | 8.7 | 0.00 | 0.16 | 0.03 | 88 | 1004.7 |
| 20260502190337 | 32 | 329 | 4.3 | 10.4 | 0.00 | 0.16 | 0.03 | 87 | 1004.6 |
| 20260502185827 | 32 | 335 | 2.6 | 6.1 | 0.00 | 0.16 | 0.03 | 86 | 1004.7 |
| 20260502185337 | 33 | 327 | 3.5 | 7.8 | 0.00 | 0.16 | 0.03 | 85 | 1004.6 |
| 20260502184830 | 33 | 308 | 3.5 | 9.6 | 0.00 | 0.16 | 0.03 | 84 | 1004.6 |
| 20260502184320 | 33 | 328 | 6.1 | 9.6 | 0.00 | 0.16 | 0.03 | 84 | 1004.6 |
| 20260502183833 | 33 | 319 | 2.6 | 5.2 | 0.00 | 0.16 | 0.03 | 83 | 1004.5 |
| 20260502183345 | 33 | 324 | 0.9 | 4.3 | 0.00 | 0.16 | 0.03 | 83 | 1004.5 |
| 20260502182834 | 33 | 353 | 2.6 | 5.2 | 0.00 | 0.16 | 0.03 | 83 | 1004.5 |
| 20260502182331 | 33 | 340 | 2.6 | 4.3 | 0.00 | 0.16 | 0.03 | 82 | 1004.5 |
| 20260502181823 | 33 | 319 | 1.7 | 5.2 | 0.00 | 0.16 | 0.03 | 83 | 1004.5 |
| 20260502181333 | 33 | 315 | 2.6 | 7.0 | 0.00 | 0.16 | 0.03 | 83 | 1004.4 |
| 20260502180827 | 33 | 31 | 0.9 | 7.0 | 0.00 | 0.16 | 0.03 | 84 | 1004.4 |
| 20260502180319 | 33 | 341 | 2.6 | 7.0 | 0.00 | 0.16 | 0.03 | 84 | 1004.4 |
| 20260502170324 | 34 | 303 | 0.9 | 4.3 | 0.00 | 0.16 | 0.03 | 80 | 1004.6 |
| 20260502164332 | 35 | 326 | 3.5 | 7.8 | 0.00 | 0.16 | 0.03 | 81 | 1004.6 |
| 20260502163841 | 34 | 316 | 4.3 | 10.4 | 0.00 | 0.16 | 0.03 | 82 | 1004.6 |
| 20260502163333 | 34 | 334 | 6.1 | 11.3 | 0.00 | 0.16 | 0.03 | 82 | 1004.7 |
| 20260502162824 | 35 | 326 | 5.2 | 14.8 | 0.00 | 0.16 | 0.03 | 81 | 1004.8 |
| 20260502162334 | 35 | 326 | 7.0 | 17.4 | 0.00 | 0.16 | 0.03 | 80 | 1004.8 |
| 20260502161828 | 36 | 322 | 8.7 | 17.4 | 0.00 | 0.16 | 0.03 | 77 | 1004.8 |
| 20260502161340 | 36 | 324 | 7.0 | 12.2 | 0.00 | 0.16 | 0.03 | 75 | 1004.7 |
| 20260502160851 | 36 | 316 | 1.7 | 8.7 | 0.00 | 0.16 | 0.03 | 75 | 1004.6 |
| 20260502160327 | 36 | 343 | 2.6 | 8.7 | 0.00 | 0.16 | 0.03 | 76 | 1004.5 |
| 20260502151830 | 37 | 301 | 5.2 | 12.2 | 0.00 | 0.16 | 0.03 | 73 | 1004.7 |
| 20260502151328 | 37 | 295 | 3.5 | 11.3 | 0.00 | 0.16 | 0.03 | 74 | 1004.7 |
| 20260502150819 | 37 | 297 | 7.0 | 11.3 | 0.00 | 0.16 | 0.03 | 71 | 1004.7 |
| 20260502150332 | 37 | 303 | 6.1 | 13.9 | 0.00 | 0.16 | 0.03 | 71 | 1004.7 |
| 20260502130338 | 43 | 325 | 6.1 | 13.9 | 0.00 | 0.16 | 0.03 | 63 | 1004.7 |
| 20260502123332 | 44 | 320 | 5.2 | 13.9 | 0.00 | 0.16 | 0.03 | 65 | 1004.7 |
| 20260502122825 | 44 | 325 | 4.3 | 13.9 | 0.00 | 0.16 | 0.03 | 67 | 1004.6 |
| 20260502122336 | 43 | 297 | 5.2 | 11.3 | 0.00 | 0.16 | 0.03 | 69 | 1004.7 |
| 20260502121828 | 42 | 305 | 5.2 | 13.0 | 0.00 | 0.16 | 0.03 | 73 | 1004.8 |
| 20260502121359 | 40 | 311 | 6.1 | 13.0 | 0.00 | 0.16 | 0.03 | 73 | 1004.7 |
| 20260502120823 | 39 | 286 | 4.3 | 12.2 | 0.00 | 0.16 | 0.03 | 71 | 1004.7 |
| 20260502120320 | 39 | 193 | 5.2 | 12.2 | 0.00 | 0.16 | 0.03 | 71 | 1004.7 |
| 20260502115853 | 40 | 297 | 4.3 | 13.0 | 0.00 | 0.16 | 0.03 | 69 | 1004.6 |
| 20260502115324 | 40 | 308 | 6.1 | 13.0 | 0.00 | 0.16 | 0.03 | 70 | 1004.7 |
| 20260502114837 | 41 | 271 | 6.1 | 13.0 | 0.00 | 0.16 | 0.03 | 71 | 1004.6 |
| 20260502114328 | 40 | 339 | 3.5 | 17.4 | 0.00 | 0.16 | 0.03 | 78 | 1004.6 |
| 20260502113819 | 39 | 286 | 6.1 | 17.4 | 0.00 | 0.16 | 0.03 | 82 | 1004.6 |
| 20260502113333 | 37 | 320 | 6.1 | 13.9 | 0.00 | 0.16 | 0.03 | 80 | 1004.6 |
| 20260502112823 | 37 | 320 | 7.0 | 13.9 | 0.00 | 0.16 | 0.03 | 80 | 1004.6 |
| 20260502112357 | 37 | 328 | 3.5 | 11.3 | 0.00 | 0.16 | 0.03 | 81 | 1004.7 |
| 20260502111848 | 36 | 286 | 6.1 | 13.9 | 0.00 | 0.16 | 0.03 | 81 | 1004.7 |
| 20260502111324 | 36 | 291 | 5.2 | 13.9 | 0.00 | 0.16 | 0.03 | 79 | 1004.6 |
| 20260502110836 | 36 | 271 | 7.0 | 13.9 | 0.00 | 0.16 | 0.03 | 78 | 1004.6 |
| 20260502110351 | 36 | 291 | 6.1 | 14.8 | 0.00 | 0.16 | 0.03 | 79 | 1004.6 |
| 20260502105836 | 37 | 318 | 7.8 | 16.5 | 0.00 | 0.16 | 0.03 | 79 | 1004.6 |
| 20260502105329 | 37 | 310 | 6.1 | 16.5 | 0.00 | 0.16 | 0.03 | 77 | 1004.5 |
| 20260502104820 | 37 | 308 | 6.1 | 12.2 | 0.00 | 0.16 | 0.03 | 76 | 1004.4 |
| 20260502104331 | 37 | 358 | 6.1 | 11.3 | 0.00 | 0.16 | 0.03 | 75 | 1004.4 |
| 20260502103821 | 37 | 341 | 4.3 | 15.6 | 0.00 | 0.16 | 0.03 | 75 | 1004.4 |
| 20260502103334 | 37 | 335 | 7.8 | 16.5 | 0.00 | 0.16 | 0.03 | 73 | 1004.3 |
| 20260502102830 | 38 | 343 | 9.6 | 16.5 | 0.00 | 0.16 | 0.03 | 71 | 1004.3 |
| 20260502102323 | 39 | 326 | 6.1 | 14.8 | 0.00 | 0.16 | 0.03 | 69 | 1004.2 |
| 20260502101834 | 39 | 301 | 8.7 | 14.8 | 0.00 | 0.16 | 0.03 | 71 | 1004.1 |
| 20260502101347 | 39 | 318 | 2.6 | 11.3 | 0.00 | 0.16 | 0.03 | 76 | 1004.1 |
| 20260502100837 | 39 | 337 | 5.2 | 13.0 | 0.00 | 0.16 | 0.03 | 73 | 1004.0 |
| 20260502100351 | 39 | 300 | 4.3 | 15.6 | 0.00 | 0.16 | 0.03 | 72 | 1004.1 |
| 20260502091336 | 39 | 310 | 10.4 | 19.1 | 0.00 | 0.16 | 0.03 | 87 | 1003.5 |
| 20260502090827 | 38 | 318 | 6.1 | 17.4 | 0.00 | 0.16 | 0.03 | 89 | 1003.2 |
| 20260502090319 | 37 | 321 | 5.2 | 13.9 | 0.00 | 0.16 | 0.03 | 91 | 1003.4 |